Vertical_Velocity
-0 -1 -1 -0 2 5 17 8 6 0 2 13 -1 -0 -8 -3 -4 2 -3 8 2 2 -1 1 4 -11 -19 -3 -8 -3 -21 -3 -1 -21 -11 -6 -6 -10 -5 2 -4 -2 -3 -32
2 6 3 4 5 2 17 6 -0 8 -1 1 -1 3 -1 -4 6 -3 2 -0 1 -1 1 8 1 -0 -21 1 3 -14 -13 -1 1 6 4 6 3 -4 -3 -0 -3 -6 -5 -34
-3 -2 3 3 5 1 22 13 1 7 27 -2 0 0 -3 2 -2 -3 1 -2 10 5 4 -3 -3 0 -1 -1 -2 2 8 2 -9 -20 -38 -7 4 3 0 -0 5 -15 -14 -9
1 3 2 2 2 1 49 7 -4 -13 -3 8 2 4 0 2 1 0 5 2 0 -4 2 1 -1 0 3 6 -4 2 2 -1 6 -6 -1 2 -5 -3 -1 4 -16 4 -32 -1
0 2 3 -2 -1 4 43 -9 -7 8 -0 4 5 1 -4 -3 -2 2 -2 8 -4 3 2 -6 0 -2 -1 -9 7 1 1 -4 5 -2 0 3 1 -0 0 -0 -1 4 4 -8
6 4 7 -3 -3 16 14 9 3 -10 -3 3 5 -11 -15 -14 2 -3 -3 -4 6 6 -21 -5 -16 2 -1 -1 -2 -1 0 1 1 -14 0 2 13 -22 -3 -4 0 -6 0 -39
3 -1 6 -2 -11 12 -4 -11 -10 -5 1 -1 -12 1 -1 -1 -6 -5 -6 8 4 -14 2 14 13 8 2 3 -1 -0 0 3 0 -5 2 16 -59 -2 -2 -1 -5 -1 3 -1
1 -2 -2 -2 -1 38 2 -14 8 -5 0 -5 5 3 -3 1 -2 3 4 -9 -21 6 -0 5 5 4 4 -2 -2 1 1 2 2 1 -1 -8 -6 -7 -2 -2 -33 -4 -2 -2
-2 2 1 0 -4 28 14 -2 1 -1 -8 -5 -6 -2 -3 -4 -2 2 -6 1 2 1 0 3 -0 -3 -6 1 5 2 6 2 -6 2 2 -6 -39 -1 -2 1 -23 -5 2 -3
-2 -1 8 9 18 13 4 -15 -4 1 -7 -1 2 -3 -13 -1 1 -2 0 1 4 0 0 2 1 -3 -5 -0 -2 1 5 4 -2 0 -0 -8 -3 -2 3 5 -53 -3 -2 -7
-1 -3 7 6 3 14 -8 -10 5 -9 -1 -0 2 2 -7 0 1 -3 -5 -3 7 5 5 1 -4 0 -3 1 -4 -4 -7 -5 -1 2 3 -9 -2 4 -11 -17 -0 -2 1 -1
11 6 -8 -7 19 -1 -3 -1 6 -11 -12 -7 -5 3 2 0 5 -4 1 -3 0 0 -1 2 2 1 1 -3 -2 1 1 -12 -12 -13 -15 -3 -1 -4 -4 0 -1 -0 1 -2
-2 26 6 1 -10 -7 -17 0 -4 7 -2 -0 3 -1 0 -1 3 1 -12 1 -1 0 -8 1 -0 2 2 -1 -3 -1 1 -0 -3 -4 -4 -2 -2 5 -2 -1 2 0 4 -1
-6 9 -0 24 1 9 10 4 1 1 -3 -5 -7 -3 -4 -4 2 9 6 -1 4 0 4 -1 0 2 3 0 -2 -3 -8 -1 -3 -2 -1 1 -0 -1 2 1 -3 -5 -2 -0
-2 3 0 -5 6 -1 12 3 -6 -4 -11 -5 -3 -4 -2 -1 1 1 2 7 5 1 1 1 -2 -0 2 -1 2 1 -2 -5 -6 -13 -6 -9 -9 -4 2 -9 -1 -5 -11 -1
2 1 3 1 -1 10 -2 -1 3 -2 -2 -3 -3 -0 -2 -0 -1 1 0 4 -1 -1 -2 -1 -1 0 -5 3 0 -4 -1 2 -4 -6 -6 -9 -1 -9 -6 3 -6 2 2 1
-1 2 3 -6 -2 3 -1 -2 0 2 -4 -4 0 -2 -1 1 2 2 -1 3 1 0 -2 1 -0 1 -1 1 0 -4 -3 -3 -3 -1 3 6 1 -17 2 2 1 8 8 17
-3 -2 7 14 -1 2 -2 1 -0 6 -1 3 0 -3 -1 -1 0 0 -1 -0 3 1 -3 2 0 3 0 1 -7 -3 -1 2 2 -2 2 -5 1 7 7 4 1 4 3 -1
-1 -5 -0 12 4 -2 -6 -4 2 -3 -0 -1 1 -1 -5 3 -1 1 3 2 3 -4 0 -0 4 -1 -1 -11 -2 -1 -1 -7 -5 1 2 4 5 5 4 5 8 -0 -1 2
-2 -0 -2 -1 -1 -2 1 13 7 6 0 4 0 1 -2 -2 0 -0 2 1 -1 1 -6 0 2 -3 -7 -2 -2 -3 -2 8 -2 -4 5 10 2 -2 -1 -6 5 2 -2 2
-1 1 1 -0 1 -1 2 1 2 1 1 1 -3 -1 -1 -2 1 -1 -0 -1 -1 2 -3 1 0 -2 -3 1 -2 -4 5 1 -8 5 2 -3 -4 -6 -4 3 5 2 -0 -3
2 2 2 2 0 0 4 -1 2 2 -3 1 0 -2 -2 -0 1 2 0 0 3 -1 -0 4 1 -3 -1 2 3 5 1 1 -0 2 1 5 6 6 4 -0 -0 -2 -1 3
3 1 2 3 -1 -3 2 -1 1 -0 -0 -1 -0 1 -0 2 1 0 2 3 -0 1 0 1 -2 0 2 2 4 1 9 3 4 1 2 1 2 11 2 -7 -5 -2 2 5
1 -1 -3 -5 -2 -1 -1 -1 -1 -4 0 1 1 0 -0 -0 1 -0 2 -1 3 -0 -0 -3 -1 2 5 -0 -1 1 3 -0 -1 1 4 1 -0 2 5 8 5 1 1 -1
1 -1 -4 -0 -4 -0 -0 0 1 -2 -1 1 1 1 -1 0 -0 0 -1 -3 -1 1 -3 0 1 2 1 -0 10 -4 -3 0 1 2 1 2 1 0 -2 4 3 4 -1 -1
1 2 -1 0 -2 -2 -1 -0 -1 1 -1 2 2 -0 -1 -0 -1 2 -1 2 -1 -3 1 -0 6 -0 1 -3 2 8 2 1 2 2 1 -1 -4 -3 -3 -1 3 2 4 -1
1 -2 1 -0 0 -4 -1 0 0 3 2 -1 -0 -1 0 -3 -1 0 -0 -1 -1 1 -0 2 -0 1 2 1 1 1 1 0 1 0 2 2 -0 -0 1 -2 1 5 3 3
Height
1379 1380 1380 1382 1385 1390 1395 1397 1396 1390 1399 1408 1397 1398 1403 1410 1408 1414 1413 1402 1402 1400 1394 1394 1395 1393 1387 1384 1395 1404 1401 1421 1430 1415 1410 1413 1416 1425 1428 1439 1452 1451 1466 1415
1370 1370 1370 1371 1375 1380 1384 1382 1386 1386 1390 1392 1390 1392 1393 1400 1404 1402 1403 1402 1395 1389 1387 1387 1381 1382 1379 1384 1388 1392 1402 1411 1429 1422 1418 1413 1410 1404 1411 1425 1440 1442 1465 1401
1359 1357 1356 1357 1361 1366 1373 1373 1376 1377 1377 1379 1384 1387 1388 1391 1391 1393 1394 1392 1395 1389 1386 1380 1373 1374 1377 1380 1381 1384 1390 1392 1397 1400 1393 1399 1408 1404 1404 1414 1433 1414 1423 1399
1347 1343 1341 1343 1346 1351 1360 1355 1354 1352 1359 1364 1367 1376 1380 1380 1383 1383 1384 1385 1380 1379 1378 1381 1371 1366 1374 1374 1376 1381 1385 1392 1392 1388 1391 1392 1391 1394 1395 1399 1398 1412 1386 1404
1333 1328 1326 1328 1331 1338 1344 1339 1341 1346 1348 1356 1366 1371 1370 1372 1374 1372 1372 1371 1365 1376 1371 1368 1371 1369 1365 1365 1369 1374 1376 1384 1387 1388 1388 1391 1399 1391 1390 1386 1382 1393 1388 1391
1316 1313 1310 1312 1316 1324 1321 1322 1331 1336 1342 1351 1359 1356 1354 1353 1364 1364 1366 1367 1368 1365 1362 1368 1371 1369 1363 1360 1360 1368 1374 1378 1391 1382 1386 1398 1399 1379 1377 1382 1379 1380 1391 1359
1301 1296 1296 1297 1302 1307 1310 1314 1325 1331 1338 1341 1336 1347 1354 1356 1359 1360 1357 1363 1363 1359 1360 1365 1365 1361 1357 1360 1360 1362 1363 1372 1379 1379 1388 1394 1361 1365 1368 1372 1373 1371 1370 1373
1289 1284 1281 1285 1293 1299 1303 1311 1317 1319 1334 1339 1343 1346 1349 1358 1358 1360 1359 1356 1362 1367 1365 1356 1356 1354 1356 1349 1351 1359 1366 1367 1372 1377 1380 1369 1359 1353 1359 1365 1354 1366 1363 1364
1284 1278 1272 1278 1288 1296 1300 1307 1314 1316 1328 1336 1338 1342 1344 1353 1356 1359 1354 1359 1360 1366 1366 1360 1346 1336 1340 1352 1344 1347 1358 1360 1366 1376 1370 1363 1318 1344 1349 1361 1363 1344 1352 1358
1285 1281 1280 1281 1284 1291 1297 1306 1312 1315 1328 1330 1334 1337 1340 1347 1351 1352 1349 1349 1352 1360 1361 1353 1338 1338 1334 1338 1337 1341 1343 1354 1355 1364 1365 1358 1340 1337 1342 1368 1334 1328 1333 1337
1289 1284 1279 1276 1282 1291 1298 1308 1312 1314 1319 1327 1330 1332 1334 1339 1342 1348 1345 1347 1348 1355 1352 1349 1342 1330 1331 1333 1328 1323 1331 1345 1351 1361 1360 1353 1331 1335 1334 1324 1320 1322 1320 1325
1294 1291 1288 1287 1285 1294 1302 1307 1311 1314 1321 1327 1328 1329 1331 1334 1336 1338 1344 1345 1343 1344 1348 1345 1338 1323 1321 1325 1326 1324 1326 1322 1333 1336 1333 1324 1322 1322 1322 1320 1319 1321 1319 1321
1299 1297 1295 1297 1296 1299 1303 1307 1311 1317 1319 1324 1327 1326 1328 1331 1334 1337 1341 1345 1346 1348 1351 1348 1340 1323 1323 1314 1320 1316 1312 1314 1323 1328 1320 1320 1320 1318 1319 1320 1321 1321 1320 1321
1301 1299 1297 1298 1301 1305 1308 1310 1313 1316 1320 1325 1324 1324 1325 1326 1327 1330 1335 1338 1341 1344 1345 1345 1342 1342 1327 1310 1304 1304 1303 1309 1317 1322 1318 1316 1313 1311 1317 1322 1323 1324 1326 1329
1303 1301 1300 1298 1299 1302 1305 1309 1313 1317 1324 1327 1325 1321 1320 1320 1322 1325 1327 1329 1334 1339 1340 1335 1336 1334 1326 1315 1308 1300 1294 1302 1308 1300 1301 1304 1302 1304 1313 1320 1322 1324 1329 1334
1304 1303 1302 1301 1301 1303 1306 1310 1314 1316 1321 1324 1327 1319 1315 1317 1318 1320 1324 1327 1331 1333 1332 1332 1329 1324 1329 1322 1299 1287 1290 1290 1290 1290 1292 1294 1293 1299 1309 1311 1317 1321 1323 1328
1306 1305 1305 1305 1306 1305 1307 1311 1311 1313 1317 1322 1324 1319 1316 1315 1317 1319 1321 1324 1325 1327 1326 1323 1319 1317 1319 1314 1300 1286 1286 1284 1285 1286 1289 1291 1291 1293 1299 1307 1313 1317 1322 1324
1311 1308 1307 1307 1308 1309 1310 1310 1310 1313 1317 1319 1319 1317 1317 1314 1315 1317 1317 1318 1318 1316 1313 1308 1306 1309 1308 1309 1294 1287 1282 1280 1281 1281 1285 1281 1285 1293 1299 1306 1311 1314 1318 1324
1313 1312 1311 1308 1309 1310 1310 1312 1315 1315 1319 1317 1316 1316 1318 1311 1311 1311 1312 1313 1310 1306 1301 1302 1303 1294 1289 1283 1280 1278 1275 1272 1276 1281 1282 1280 1282 1289 1296 1301 1307 1310 1317 1325
1313 1312 1313 1312 1311 1309 1312 1312 1315 1315 1314 1311 1309 1307 1308 1307 1307 1305 1307 1303 1297 1293 1289 1289 1287 1278 1271 1269 1266 1270 1269 1271 1279 1280 1280 1279 1282 1289 1295 1303 1308 1311 1318 1326
1313 1313 1313 1312 1311 1311 1311 1311 1311 1310 1309 1306 1304 1302 1302 1302 1302 1300 1299 1293 1290 1283 1282 1280 1275 1270 1265 1262 1264 1271 1271 1273 1279 1279 1282 1282 1284 1290 1298 1305 1308 1314 1321 1328
1314 1314 1313 1312 1312 1310 1309 1306 1306 1306 1301 1301 1300 1298 1297 1296 1296 1295 1293 1289 1285 1273 1278 1274 1265 1262 1260 1267 1267 1265 1266 1271 1276 1279 1281 1283 1288 1294 1298 1303 1310 1320 1327 1333
1310 1311 1311 1310 1309 1312 1305 1304 1298 1303 1297 1297 1296 1295 1295 1294 1294 1293 1290 1284 1280 1277 1272 1263 1266 1269 1268 1266 1264 1264 1269 1272 1276 1283 1284 1290 1293 1298 1300 1308 1317 1326 1332 1336
1307 1307 1313 1309 1310 1305 1303 1302 1301 1297 1294 1293 1293 1293 1293 1293 1293 1291 1289 1286 1283 1277 1277 1267 1264 1268 1269 1270 1273 1269 1274 1277 1283 1286 1288 1292 1298 1302 1309 1317 1323 1327 1332 1335
1304 1304 1312 1304 1299 1299 1299 1298 1298 1295 1293 1293 1293 1293 1293 1292 1294 1292 1291 1289 1284 1278 1278 1270 1271 1271 1273 1276 1277 1277 1283 1287 1289 1291 1293 1296 1302 1308 1313 1320 1327 1330 1333 1337
1300 1299 1300 1299 1300 1300 1297 1296 1294 1292 1292 1291 1291 1290 1292 1290 1290 1290 1291 1284 1285 1279 1277 1279 1277 1276 1278 1279 1283 1285 1288 1292 1294 1297 1300 1302 1308 1314 1319 1324 1329 1332 1334 1338
1295 1295 1294 1295 1295 1295 1294 1294 1293 1292 1291 1293 1290 1290 1286 1290 1288 1285 1289 1293 1286 1282 1282 1280 1279 1280 1282 1284 1287 1288 1290 1293 1296 1299 1303 1306 1312 1317 1321 1324 1329 1331 1335 1341